Weather History for Forest City, IA

Change the Weather History Date:

Wednesday, January 2, 2013

  Actual Average Record
Temperature  
Mean Temperature 14 °F -  
Max Temperature 28 °F 25 °F 28 °F (2013)
Min Temperature 1 °F 6 °F -18 °F (2014)
Degree Days  
Heating Degree Days 50    
Moisture  
Dew Point 12 °F    
Average Humidity 85    
Maximum Humidity 100    
Minimum Humidity 73    
Precipitation  
Precipitation 0.00 in - - ()
Sea Level Pressure  
Sea Level Pressure 30.00 in    
Wind  
Wind Speed 6 mph (SW)    
Max Wind Speed 16 mph    
Max Gust Speed 22 mph    
Visibility 7 miles    
Events Snow    
Averages and records for this station are not official NWS values.
T = Trace of Precipitation, MM = Missing Value Source: NWS Daily Summary

Daily Weather History Graph

Daily Weather History Graph

Search for Another Location

Airport:

Trip Planner

Search our weather history database for the weather conditions in past years. The results will help you decide how hot, cold, wet, or windy it might be!

Date:

Astronomy

Jan. 02, 2013 Rise Set
Actual Time 7:46 AM CST 4:50 PM CST
Civil Twilight 7:14 AM CST 5:23 PM CST
Nautical Twilight 6:38 AM CST 5:59 PM CST
Astronomical Twilight 6:04 AM CST 6:33 PM CST
Moon 10:34 PM CST (1/2) 10:19 AM CST (1/2)
Length of Visible Light 10h 08m
Length of Day
9h 04m
Waning Gibbous, 75% of the Moon is Illuminated
Jan 2
Waning Gibbous
Jan 4
Last Quarter
Jan 11
New
Jan 18
First Quarter
Jan 26
Full

Hourly Weather History & Observations

Time (CST) Temp. Windchill Dew Point Humidity Pressure Visibility Wind Dir Wind Speed Gust Speed Precip Events Conditions
12:15 AM 6.8 °F -3.5 °F 1.4 °F 79% 30.04 in 10.0 mi SW 5.8 mph - N/A   Mostly Cloudy
12:35 AM 8.6 °F -1.3 °F 1.4 °F 73% 30.04 in 10.0 mi SSW 5.8 mph - N/A   Overcast
12:55 AM 8.6 °F -2.6 °F 5.0 °F 85% 30.03 in 10.0 mi SSW 6.9 mph - N/A   Overcast
1:15 AM 10.4 °F -0.4 °F 6.8 °F 85% 30.02 in 5.0 mi SSW 6.9 mph - N/A   Overcast
1:35 AM 10.4 °F -0.4 °F 8.6 °F 92% 30.02 in 2.5 mi SSW 6.9 mph - N/A   Overcast
1:55 AM 12.2 °F 2.9 °F 8.6 °F 85% 30.02 in 0.8 mi SSW 5.8 mph - N/A   Overcast
2:15 AM 12.2 °F -1.0 °F 10.4 °F 92% 30.02 in 0.8 mi SW 10.4 mph - N/A   Overcast
2:35 AM 12.2 °F -0.2 °F 8.6 °F 85% 30.03 in 0.8 mi SW 9.2 mph - N/A   Overcast
3:15 AM 12.2 °F 1.7 °F 8.6 °F 85% 30.02 in 1.5 mi SSW 6.9 mph - N/A   Overcast
3:35 AM 12.2 °F 2.9 °F 8.6 °F 85% 30.01 in 4.0 mi SSW 5.8 mph - N/A   Overcast
3:55 AM 10.4 °F 4.0 °F 5.0 °F 79% 30.00 in 7.0 mi SSW 3.5 mph - N/A   Scattered Clouds
4:15 AM 6.8 °F -0.1 °F 3.2 °F 85% 29.99 in 7.0 mi SSE 3.5 mph - N/A   Clear
4:35 AM 5.0 °F -2.1 °F 1.4 °F 85% 29.98 in 10.0 mi SSE 3.5 mph - N/A   Clear
4:55 AM 3.2 °F - -0.4 °F 85% 29.99 in 10.0 mi Calm Calm - N/A   Clear
5:15 AM 5.0 °F - 1.4 °F 85% 29.98 in 10.0 mi Calm Calm - N/A   Clear
5:35 AM 3.2 °F -6.2 °F -2.2 °F 78% 29.97 in 10.0 mi SSE 4.6 mph - N/A   Clear
5:55 AM 3.2 °F -6.2 °F -0.4 °F 85% 29.97 in 10.0 mi SSE 4.6 mph - N/A   Clear
6:15 AM 3.2 °F -4.2 °F -0.4 °F 85% 29.97 in 10.0 mi South 3.5 mph - N/A   Clear
6:35 AM 3.2 °F -4.2 °F -2.2 °F 78% 29.97 in 10.0 mi SSE 3.5 mph - N/A   Clear
6:55 AM 3.2 °F -4.2 °F -0.4 °F 85% 29.97 in 10.0 mi SSE 3.5 mph - N/A   Clear
7:15 AM 1.4 °F -8.3 °F -4.0 °F 78% 29.98 in 10.0 mi SSE 4.6 mph - N/A   Clear
7:35 AM 1.4 °F - -4.0 °F 78% 29.98 in 7.0 mi Calm Calm - N/A   Clear
7:55 AM 3.2 °F -4.2 °F -0.4 °F 85% 29.98 in 5.0 mi SSE 3.5 mph - N/A Snow Light Snow
8:15 AM 1.4 °F -6.2 °F -2.2 °F 85% 29.98 in 4.0 mi South 3.5 mph - N/A Snow Light Snow
8:35 AM 3.2 °F -6.2 °F -2.2 °F 78% 29.98 in 3.0 mi South 4.6 mph - N/A Snow Light Snow
8:55 AM 3.2 °F -6.2 °F -0.4 °F 85% 29.97 in 3.0 mi South 4.6 mph - N/A Snow Light Snow
9:15 AM 6.8 °F -0.1 °F 3.2 °F 85% 29.97 in 7.0 mi SSW 3.5 mph - N/A   Mostly Cloudy
9:35 AM 8.6 °F 2.0 °F 3.2 °F 79% 29.97 in 5.0 mi SSW 3.5 mph - N/A Snow Light Snow
9:55 AM 10.4 °F 4.0 °F 6.8 °F 85% 29.98 in 7.0 mi SW 3.5 mph - N/A   Clear
10:15 AM 10.4 °F 4.0 °F 6.8 °F 85% 29.97 in 7.0 mi SSW 3.5 mph - N/A   Clear
10:35 AM 10.4 °F 4.0 °F 8.6 °F 92% 29.97 in 5.0 mi SSW 3.5 mph - N/A   Clear
10:55 AM 12.2 °F 4.3 °F 8.6 °F 85% 29.96 in 7.0 mi South 4.6 mph - N/A   Clear
11:15 AM 12.2 °F -0.2 °F 10.4 °F 92% 29.97 in 7.0 mi SW 9.2 mph - N/A   Scattered Clouds
11:35 AM 14.0 °F 2.9 °F 10.4 °F 86% 29.96 in 7.0 mi SSW 8.1 mph - N/A   Overcast
11:55 AM 14.0 °F 2.0 °F 10.4 °F 86% 29.97 in 7.0 mi SW 9.2 mph - N/A   Overcast
12:15 PM 14.0 °F 5.1 °F 12.2 °F 93% 29.95 in 7.0 mi WSW 5.8 mph - N/A   Overcast
12:35 PM 15.8 °F 3.4 °F 12.2 °F 86% 29.95 in 7.0 mi SW 10.4 mph - N/A   Overcast
12:55 PM 17.6 °F 9.3 °F 12.2 °F 79% 29.94 in 7.0 mi SW 5.8 mph - N/A   Overcast
1:15 PM 17.6 °F 8.2 °F 12.2 °F 79% 29.94 in 7.0 mi SW 6.9 mph - N/A   Overcast
1:35 PM 17.6 °F 9.3 °F 14.0 °F 86% 29.95 in 7.0 mi SW 5.8 mph - N/A   Overcast
1:55 PM 19.4 °F 10.4 °F 15.8 °F 86% 29.95 in 5.0 mi WSW 6.9 mph - N/A Snow Light Snow
2:15 PM 21.2 °F 13.6 °F 17.6 °F 86% 29.94 in 5.0 mi WSW 5.8 mph - N/A   Overcast
2:35 PM 21.2 °F 14.9 °F 17.6 °F 86% 29.95 in 7.0 mi West 4.6 mph - N/A Snow Light Snow
2:55 PM 23.0 °F 17.0 °F 19.4 °F 86% 29.95 in 7.0 mi West 4.6 mph - N/A   Overcast
3:15 PM 23.0 °F 18.4 °F 19.4 °F 86% 29.95 in 5.0 mi West 3.5 mph - N/A   Overcast
3:35 PM 24.8 °F 20.5 °F 21.2 °F 86% 29.96 in 7.0 mi WSW 3.5 mph - N/A   Overcast
3:55 PM 24.8 °F 20.5 °F 21.2 °F 86% 29.97 in 7.0 mi WSW 3.5 mph - N/A   Overcast
4:15 PM 24.8 °F 20.5 °F 21.2 °F 86% 29.97 in 7.0 mi SW 3.5 mph - N/A   Overcast
4:35 PM 26.6 °F 22.6 °F 21.2 °F 80% 29.98 in 7.0 mi WSW 3.5 mph - N/A   Overcast
4:55 PM 26.6 °F 21.2 °F 23.0 °F 86% 29.98 in 7.0 mi SW 4.6 mph - N/A   Overcast
5:15 PM 26.6 °F 21.2 °F 23.0 °F 86% 29.99 in 7.0 mi SW 4.6 mph - N/A   Overcast
5:35 PM 26.6 °F 21.2 °F 23.0 °F 86% 29.99 in 7.0 mi SW 4.6 mph - N/A   Overcast
5:55 PM 26.6 °F 22.6 °F 24.8 °F 93% 30.01 in 7.0 mi WSW 3.5 mph - N/A   Overcast
6:15 PM 28.4 °F - 24.8 °F 86% 30.01 in 7.0 mi Calm Calm - N/A   Overcast
6:35 PM 28.4 °F - 24.8 °F 86% 30.01 in 7.0 mi Calm Calm - N/A   Overcast
6:55 PM 28.4 °F 23.3 °F 26.6 °F 93% 30.01 in 10.0 mi West 4.6 mph - N/A   Overcast
7:15 PM 28.4 °F 19.7 °F 26.6 °F 93% 30.02 in 7.0 mi West 9.2 mph - N/A   Overcast
7:35 PM 28.4 °F 21.2 °F 26.6 °F 93% 30.03 in 7.0 mi West 6.9 mph - N/A   Overcast
7:55 PM 28.4 °F 21.2 °F 28.4 °F 100% 30.03 in 4.0 mi WNW 6.9 mph - N/A   Overcast
8:15 PM 28.4 °F 21.2 °F 26.6 °F 93% 30.03 in 7.0 mi NW 6.9 mph - N/A   Overcast
8:35 PM 28.4 °F 20.4 °F 26.6 °F 93% 30.04 in 10.0 mi NW 8.1 mph - N/A   Overcast
8:55 PM 28.4 °F 19.1 °F 26.6 °F 93% 30.04 in 10.0 mi WNW 10.4 mph - N/A   Overcast
9:15 PM 26.6 °F 15.2 °F 23.0 °F 86% 30.04 in 10.0 mi NW 13.8 mph - N/A   Overcast
9:35 PM 26.6 °F 14.7 °F 21.2 °F 80% 30.05 in 10.0 mi WNW 15.0 mph - N/A   Overcast
9:55 PM 26.6 °F 15.7 °F 21.2 °F 80% 30.06 in 10.0 mi WNW 12.7 mph - N/A   Overcast
10:15 PM 26.6 °F 15.7 °F 19.4 °F 74% 30.06 in 10.0 mi WNW 12.7 mph - N/A   Overcast
10:35 PM 26.6 °F 16.8 °F 19.4 °F 74% 30.07 in 10.0 mi WNW 10.4 mph - N/A   Overcast
10:55 PM 24.8 °F 14.0 °F 19.4 °F 80% 30.08 in 10.0 mi WNW 11.5 mph - N/A   Overcast
11:15 PM 26.6 °F 16.8 °F 19.4 °F 74% 30.09 in 10.0 mi WNW 10.4 mph - N/A   Overcast
11:35 PM 26.6 °F 14.7 °F 19.4 °F 74% 30.09 in 10.0 mi WNW 15.0 mph - N/A   Overcast
11:55 PM 26.6 °F 14.3 °F 19.4 °F 74% 30.09 in 10.0 mi NW 16.1 mph 21.9 mph N/A   Overcast